| time (UTC) | temp F | wind direction | speed MPH | gust MPH | rain 1hr in | rain 24hr in | rain mn in | humidity % | barometer mb |
| 20260509153519 | 45 | 0 | 0.0 | 0.0 | 0.05 | 0.14 | 0.14 | 95 | 1014.2 |
| 20260509153039 | 45 | 0 | 0.0 | 0.0 | 0.04 | 0.13 | 0.13 | 95 | 1014.3 |
| 20260509152519 | 45 | 0 | 0.0 | 0.0 | 0.04 | 0.13 | 0.13 | 95 | 1014.2 |
| 20260509152017 | 45 | 0 | 0.0 | 0.0 | 0.03 | 0.12 | 0.12 | 95 | 1014.2 |
| 20260509151537 | 45 | 0 | 0.0 | 0.0 | 0.04 | 0.12 | 0.12 | 95 | 1014.3 |
| 20260509151020 | 45 | 0 | 0.0 | 0.0 | 0.03 | 0.11 | 0.11 | 95 | 1014.3 |
| 20260509150517 | 45 | 0 | 0.0 | 0.0 | 0.04 | 0.11 | 0.11 | 95 | 1014.2 |
| 20260509150036 | 45 | 0 | 0.0 | 0.0 | 0.04 | 0.11 | 0.11 | 94 | 1014.3 |
| 20260509145518 | 45 | 0 | 0.0 | 0.0 | 0.05 | 0.11 | 0.11 | 94 | 1014.2 |
| 20260509145018 | 45 | 0 | 0.0 | 0.0 | 0.04 | 0.10 | 0.10 | 95 | 1014.2 |
| 20260509144556 | 45 | 0 | 0.0 | 0.0 | 0.05 | 0.10 | 0.10 | 95 | 1014.2 |
| 20260509144019 | 45 | 0 | 0.0 | 0.0 | 0.06 | 0.10 | 0.10 | 95 | 1014.2 |
| 20260509143524 | 45 | 0 | 0.0 | 0.0 | 0.06 | 0.09 | 0.09 | 95 | 1014.1 |
| 20260509143043 | 45 | 0 | 0.0 | 0.0 | 0.06 | 0.09 | 0.09 | 95 | 1014.2 |
| 20260509142519 | 45 | 0 | 0.0 | 0.0 | 0.07 | 0.09 | 0.09 | 95 | 1014.2 |
| 20260509142018 | 44 | 0 | 0.0 | 0.0 | 0.06 | 0.08 | 0.08 | 94 | 1014.1 |
| 20260509141542 | 44 | 0 | 0.0 | 0.0 | 0.07 | 0.08 | 0.08 | 94 | 1014.1 |
| 20260509141018 | 44 | 0 | 0.0 | 0.0 | 0.06 | 0.07 | 0.07 | 94 | 1014.1 |
| 20260509140518 | 44 | 0 | 0.0 | 0.0 | 0.06 | 0.07 | 0.07 | 95 | 1014.1 |
| 20260509140037 | 44 | 0 | 0.0 | 0.0 | 0.06 | 0.07 | 0.07 | 94 | 1014.0 |
| 20260509135520 | 43 | 0 | 0.0 | 0.0 | 0.05 | 0.06 | 0.06 | 94 | 1014.2 |
| 20260509135018 | 43 | 0 | 0.0 | 0.0 | 0.06 | 0.06 | 0.06 | 94 | 1014.1 |
| 20260509134537 | 43 | 0 | 0.0 | 0.0 | 0.05 | 0.05 | 0.05 | 94 | 1014.2 |
| 20260509134020 | 43 | 0 | 0.0 | 0.0 | 0.04 | 0.04 | 0.04 | 94 | 1014.1 |
| 20260509133518 | 42 | 0 | 0.0 | 0.0 | 0.03 | 0.03 | 0.03 | 93 | 1014.1 |
| 20260509133037 | 42 | 0 | 0.0 | 0.0 | 0.03 | 0.03 | 0.03 | 92 | 1014.1 |
| 20260509132519 | 42 | 0 | 0.0 | 0.0 | 0.02 | 0.02 | 0.02 | 92 | 1014.0 |
| 20260509132018 | 42 | 0 | 0.0 | 0.0 | 0.02 | 0.02 | 0.02 | 92 | 1014.1 |
| 20260509131541 | 42 | 0 | 0.0 | 0.0 | 0.01 | 0.01 | 0.01 | 92 | 1014.1 |
| 20260509131017 | 42 | 0 | 0.0 | 0.0 | 0.01 | 0.01 | 0.01 | 91 | 1014.2 |
| 20260509130518 | 42 | 0 | 0.0 | 0.0 | 0.01 | 0.01 | 0.01 | 91 | 1014.2 |
| 20260509130036 | 42 | 0 | 0.0 | 0.0 | 0.01 | 0.01 | 0.01 | 91 | 1014.1 |
| 20260509125516 | 42 | 0 | 0.0 | 0.0 | 0.01 | 0.01 | 0.01 | 90 | 1014.2 |
| 20260509125019 | 41 | 0 | 0.0 | 0.0 | 0.00 | 0.00 | 0.00 | 91 | 1014.1 |
| 20260509124543 | 41 | 0 | 0.0 | 0.0 | 0.00 | 0.00 | 0.00 | 91 | 1014.0 |
| 20260509124017 | 40 | 0 | 0.0 | 0.0 | 0.00 | 0.00 | 0.00 | 90 | 1014.1 |
| 20260509123517 | 40 | 0 | 0.0 | 0.0 | 0.00 | 0.00 | 0.00 | 90 | 1014.1 |
| 20260509123038 | 40 | 0 | 0.0 | 0.0 | 0.00 | 0.00 | 0.00 | 90 | 1014.1 |
| 20260509122519 | 40 | 0 | 0.0 | 0.0 | 0.00 | 0.00 | 0.00 | 90 | 1014.1 |
| 20260509122019 | 39 | 0 | 0.0 | 0.0 | 0.00 | 0.00 | 0.00 | 91 | 1014.0 |
| 20260509121535 | 39 | 0 | 0.0 | 0.0 | 0.00 | 0.00 | 0.00 | 91 | 1014.3 |
| 20260509121019 | 39 | 0 | 0.0 | 0.0 | 0.00 | 0.00 | 0.00 | 92 | 1014.5 |
| 20260509120517 | 38 | 0 | 0.0 | 0.0 | 0.00 | 0.00 | 0.00 | 92 | 1014.4 |
| 20260509120033 | 38 | 0 | 0.0 | 0.0 | 0.00 | 0.00 | 0.00 | 92 | 1014.4 |
| 20260509115517 | 37 | 0 | 0.0 | 0.0 | 0.00 | 0.00 | 0.00 | 93 | 1014.4 |
| 20260509115018 | 37 | 0 | 0.0 | 0.0 | 0.00 | 0.00 | 0.00 | 92 | 1014.4 |
| 20260509114533 | 37 | 0 | 0.0 | 0.0 | 0.00 | 0.00 | 0.00 | 93 | 1014.5 |
| 20260509114017 | 37 | 0 | 0.0 | 0.0 | 0.00 | 0.00 | 0.00 | 93 | 1014.5 |
| 20260509113520 | 36 | 0 | 0.0 | 0.0 | 0.00 | 0.00 | 0.00 | 94 | 1014.4 |
| 20260509113032 | 36 | 0 | 0.0 | 0.0 | 0.00 | 0.00 | 0.00 | 94 | 1014.5 |
| 20260509112519 | 35 | 0 | 0.0 | 0.0 | 0.00 | 0.00 | 0.00 | 94 | 1014.6 |
| 20260509112018 | 35 | 0 | 0.0 | 0.0 | 0.00 | 0.00 | 0.00 | 94 | 1014.5 |
| 20260509111537 | 35 | 0 | 0.0 | 0.0 | 0.00 | 0.00 | 0.00 | 95 | 1014.5 |
| 20260509111020 | 34 | 0 | 0.0 | 0.0 | 0.00 | 0.00 | 0.00 | 94 | 1014.7 |
| 20260509110518 | 34 | 0 | 0.0 | 0.0 | 0.00 | 0.00 | 0.00 | 94 | 1014.7 |
| 20260509110037 | 33 | 0 | 0.0 | 0.0 | 0.00 | 0.00 | 0.00 | 94 | 1014.9 |
| 20260509105519 | 33 | 0 | 0.0 | 0.0 | 0.00 | 0.00 | 0.00 | 94 | 1015.0 |
| 20260509105018 | 33 | 0 | 0.0 | 0.0 | 0.00 | 0.00 | 0.00 | 94 | 1015.0 |
| 20260509104537 | 33 | 0 | 0.0 | 0.0 | 0.00 | 0.00 | 0.00 | 94 | 1015.2 |
| 20260509104017 | 33 | 0 | 0.0 | 0.0 | 0.00 | 0.00 | 0.00 | 94 | 1014.9 |
| 20260509103517 | 33 | 0 | 0.0 | 0.0 | 0.00 | 0.00 | 0.00 | 94 | 1014.7 |
| 20260509103034 | 32 | 0 | 0.0 | 0.0 | 0.00 | 0.00 | 0.00 | 94 | 1014.9 |
| 20260509102518 | 32 | 0 | 0.0 | 0.0 | 0.00 | 0.00 | 0.00 | 94 | 1014.9 |
| 20260509102017 | 32 | 0 | 0.0 | 0.0 | 0.00 | 0.00 | 0.00 | 94 | 1014.8 |
| 20260509101538 | 32 | 0 | 0.0 | 0.0 | 0.00 | 0.00 | 0.00 | 94 | 1014.7 |
| 20260509101017 | 32 | 0 | 0.0 | 0.0 | 0.00 | 0.00 | 0.00 | 94 | 1014.6 |
| 20260509100516 | 32 | 0 | 0.0 | 0.0 | 0.00 | 0.00 | 0.00 | 94 | 1014.7 |
| 20260509100047 | 32 | 0 | 0.0 | 0.0 | 0.00 | 0.00 | 0.00 | 94 | 1014.6 |
| 20260509095523 | 32 | 0 | 0.0 | 0.0 | 0.00 | 0.00 | 0.00 | 94 | 1014.7 |
| 20260509095020 | 31 | 0 | 0.0 | 0.0 | 0.00 | 0.00 | 0.00 | 94 | 1014.9 |
| 20260509094537 | 31 | 0 | 0.0 | 0.0 | 0.00 | 0.00 | 0.00 | 94 | 1014.9 |
| 20260509094016 | 31 | 0 | 0.0 | 0.0 | 0.00 | 0.00 | 0.00 | 94 | 1015.0 |
| 20260509093519 | 32 | 0 | 0.0 | 0.0 | 0.00 | 0.00 | 0.00 | 94 | 1014.7 |
| 20260509093038 | 31 | 0 | 0.0 | 0.0 | 0.00 | 0.00 | 0.00 | 94 | 1014.8 |
| 20260509092519 | 31 | 0 | 0.0 | 0.0 | 0.00 | 0.00 | 0.00 | 94 | 1014.6 |
| 20260509092019 | 31 | 0 | 0.0 | 0.0 | 0.00 | 0.00 | 0.00 | 94 | 1014.6 |
| 20260509091536 | 31 | 0 | 0.0 | 0.0 | 0.00 | 0.00 | 0.00 | 94 | 1014.6 |
| 20260509091017 | 31 | 0 | 0.0 | 0.0 | 0.00 | 0.00 | 0.00 | 94 | 1014.6 |
| 20260509090518 | 30 | 0 | 0.0 | 0.0 | 0.00 | 0.00 | 0.00 | 94 | 1014.5 |
| 20260509090036 | 30 | 0 | 0.0 | 0.0 | 0.00 | 0.00 | 0.00 | 94 | 1014.5 |
| 20260509085516 | 30 | 0 | 0.0 | 0.0 | 0.00 | 0.00 | 0.00 | 94 | 1014.6 |
| 20260509085022 | 30 | 0 | 0.0 | 0.0 | 0.00 | 0.00 | 0.00 | 94 | 1014.6 |
| 20260509084538 | 30 | 0 | 0.0 | 0.0 | 0.00 | 0.00 | 0.00 | 94 | 1014.7 |
| 20260509084017 | 30 | 0 | 0.0 | 0.0 | 0.00 | 0.00 | 0.00 | 94 | 1014.6 |
| 20260509083517 | 30 | 0 | 0.0 | 0.0 | 0.00 | 0.00 | 0.00 | 94 | 1014.4 |
| 20260509083035 | 30 | 0 | 0.0 | 0.0 | 0.00 | 0.00 | 0.00 | 94 | 1014.5 |
| 20260509082523 | 30 | 0 | 0.0 | 0.0 | 0.00 | 0.00 | 0.00 | 94 | 1014.5 |
| 20260509082018 | 30 | 0 | 0.0 | 0.0 | 0.00 | 0.00 | 0.00 | 94 | 1014.5 |
| 20260509081543 | 30 | 0 | 0.0 | 0.0 | 0.00 | 0.00 | 0.00 | 94 | 1014.5 |
| 20260509081019 | 30 | 0 | 0.0 | 0.0 | 0.00 | 0.00 | 0.00 | 94 | 1014.5 |
| 20260509080516 | 30 | 0 | 0.0 | 0.0 | 0.00 | 0.00 | 0.00 | 94 | 1014.3 |
| 20260509080041 | 30 | 0 | 0.0 | 0.0 | 0.00 | 0.00 | 0.00 | 94 | 1014.4 |
| 20260509075519 | 30 | 0 | 0.0 | 0.0 | 0.00 | 0.00 | 0.00 | 94 | 1014.2 |
| 20260509075019 | 30 | 0 | 0.0 | 0.0 | 0.00 | 0.00 | 0.00 | 94 | 1014.4 |
| 20260509074538 | 30 | 0 | 0.0 | 0.0 | 0.00 | 0.00 | 0.00 | 94 | 1014.3 |
| 20260509074015 | 30 | 0 | 0.0 | 0.0 | 0.00 | 0.00 | 0.00 | 94 | 1014.3 |
| 20260509073516 | 30 | 0 | 0.0 | 0.0 | 0.00 | 0.00 | 0.00 | 94 | 1014.2 |
| 20260509073032 | 31 | 0 | 0.0 | 0.0 | 0.00 | 0.00 | 0.00 | 94 | 1014.1 |
| 20260509072521 | 31 | 0 | 0.0 | 0.0 | 0.00 | 0.00 | 0.00 | 94 | 1014.0 |
| 20260509072018 | 31 | 0 | 0.0 | 0.0 | 0.00 | 0.00 | 0.00 | 93 | 1014.4 |
| 20260509071535 | 31 | 0 | 0.0 | 0.0 | 0.00 | 0.00 | 0.00 | 93 | 1014.4 |
| 20260509071019 | 31 | 0 | 0.0 | 0.0 | 0.00 | 0.00 | 0.00 | 93 | 1014.4 |
| 20260509070519 | 31 | 0 | 0.0 | 0.0 | 0.00 | 0.00 | 0.00 | 93 | 1014.5 |
| 20260509070035 | 31 | 0 | 0.0 | 0.0 | 0.00 | 0.00 | 0.00 | 93 | 1014.4 |
| 20260509065522 | 31 | 0 | 0.0 | 0.0 | 0.00 | 0.00 | 0.00 | 93 | 1014.3 |
| 20260509065016 | 31 | 0 | 0.0 | 0.0 | 0.00 | 0.00 | 0.00 | 93 | 1014.4 |
| 20260509064537 | 31 | 0 | 0.0 | 0.0 | 0.00 | 0.00 | 0.00 | 93 | 1014.4 |
| 20260509064017 | 32 | 0 | 0.0 | 0.0 | 0.00 | 0.00 | 0.00 | 93 | 1014.4 |
| 20260509063516 | 32 | 0 | 0.0 | 0.0 | 0.00 | 0.00 | 0.00 | 93 | 1014.5 |
| 20260509063031 | 32 | 0 | 0.0 | 0.0 | 0.00 | 0.00 | 0.00 | 93 | 1014.6 |
| 20260509062518 | 32 | 0 | 0.0 | 0.0 | 0.00 | 0.00 | 0.00 | 93 | 1014.7 |
| 20260509062015 | 32 | 0 | 0.0 | 0.0 | 0.00 | 0.00 | 0.00 | 93 | 1014.7 |
| 20260509061545 | 32 | 0 | 0.0 | 0.0 | 0.00 | 0.00 | 0.00 | 93 | 1014.9 |
| 20260509061021 | 32 | 0 | 0.0 | 0.0 | 0.00 | 0.00 | 0.00 | 93 | 1015.0 |
| 20260509060520 | 32 | 0 | 0.0 | 0.0 | 0.00 | 0.00 | 0.00 | 93 | 1014.9 |
| 20260509060037 | 32 | 0 | 0.0 | 0.0 | 0.00 | 0.00 | 0.00 | 93 | 1015.0 |
| 20260509055519 | 32 | 0 | 0.0 | 0.0 | 0.00 | 0.00 | 0.00 | 93 | 1015.0 |
| 20260509055024 | 32 | 0 | 0.0 | 0.0 | 0.00 | 0.00 | 0.00 | 93 | 1015.1 |
| 20260509054538 | 32 | 0 | 0.0 | 0.0 | 0.00 | 0.00 | 0.00 | 93 | 1015.1 |
| 20260509054020 | 32 | 0 | 0.0 | 0.0 | 0.00 | 0.00 | 0.00 | 93 | 1015.0 |
| 20260509053519 | 32 | 0 | 0.0 | 0.0 | 0.00 | 0.00 | 0.00 | 93 | 1015.1 |
| 20260509053035 | 32 | 0 | 0.0 | 0.0 | 0.00 | 0.00 | 0.00 | 93 | 1015.2 |
| 20260509052517 | 32 | 0 | 0.0 | 0.0 | 0.00 | 0.00 | 0.00 | 93 | 1015.2 |
| 20260509052021 | 32 | 0 | 0.0 | 0.0 | 0.00 | 0.00 | 0.00 | 92 | 1015.2 |
| 20260509051534 | 32 | 0 | 0.0 | 0.0 | 0.00 | 0.00 | 0.00 | 92 | 1015.3 |
| 20260509051016 | 32 | 0 | 0.0 | 0.0 | 0.00 | 0.00 | 0.00 | 92 | 1015.1 |
| 20260509050517 | 32 | 0 | 0.0 | 0.0 | 0.00 | 0.00 | 0.00 | 92 | 1015.1 |
| 20260509050048 | 32 | 0 | 0.0 | 0.0 | 0.00 | 0.00 | 0.00 | 92 | 1015.0 |
| 20260509045515 | 33 | 0 | 0.0 | 0.0 | 0.00 | 0.00 | 0.00 | 92 | 1015.0 |
| 20260509045016 | 33 | 0 | 0.0 | 0.0 | 0.00 | 0.00 | 0.00 | 92 | 1015.0 |
| 20260509044544 | 33 | 0 | 0.0 | 0.0 | 0.00 | 0.00 | 0.00 | 91 | 1015.0 |
| 20260509044018 | 33 | 0 | 0.0 | 0.0 | 0.00 | 0.00 | 0.00 | 91 | 1014.9 |
| 20260509043515 | 33 | 0 | 0.0 | 0.0 | 0.00 | 0.00 | 0.00 | 91 | 1014.8 |
| 20260509043034 | 33 | 0 | 0.0 | 0.0 | 0.00 | 0.00 | 0.00 | 91 | 1014.9 |
| 20260509042520 | 33 | 0 | 0.0 | 0.0 | 0.00 | 0.00 | 0.00 | 91 | 1014.7 |
| 20260509042016 | 34 | 0 | 0.0 | 0.0 | 0.00 | 0.00 | 0.00 | 91 | 1014.7 |
| 20260509041533 | 34 | 0 | 0.0 | 0.0 | 0.00 | 0.00 | 0.00 | 91 | 1014.7 |
| 20260509041019 | 34 | 0 | 0.0 | 0.0 | 0.00 | 0.00 | 0.00 | 90 | 1014.6 |
| 20260509040516 | 34 | 0 | 0.0 | 0.0 | 0.00 | 0.00 | 0.00 | 90 | 1014.5 |
| 20260509040039 | 34 | 0 | 0.0 | 0.0 | 0.00 | 0.00 | 0.00 | 90 | 1014.5 |
| 20260509035519 | 34 | 0 | 0.0 | 0.0 | 0.00 | 0.00 | 0.00 | 90 | 1014.5 |
| 20260509035018 | 34 | 0 | 0.0 | 0.0 | 0.00 | 0.00 | 0.00 | 90 | 1014.5 |
| 20260509034543 | 34 | 0 | 0.0 | 0.0 | 0.00 | 0.00 | 0.00 | 91 | 1014.4 |
| 20260509034018 | 34 | 0 | 0.0 | 0.0 | 0.00 | 0.00 | 0.00 | 91 | 1014.5 |
| 20260509033517 | 34 | 0 | 0.0 | 0.0 | 0.00 | 0.00 | 0.00 | 90 | 1014.4 |
| 20260509033037 | 34 | 0 | 0.0 | 0.0 | 0.00 | 0.00 | 0.00 | 90 | 1014.5 |
| 20260509032520 | 34 | 0 | 0.0 | 0.0 | 0.00 | 0.00 | 0.00 | 90 | 1014.6 |
| 20260509032017 | 34 | 0 | 0.0 | 0.0 | 0.00 | 0.00 | 0.00 | 90 | 1014.5 |
| 20260509031542 | 35 | 0 | 0.0 | 0.0 | 0.00 | 0.00 | 0.00 | 89 | 1014.5 |
| 20260509031018 | 35 | 0 | 0.0 | 0.0 | 0.00 | 0.00 | 0.00 | 89 | 1014.5 |
| 20260509030519 | 35 | 0 | 0.0 | 0.0 | 0.00 | 0.00 | 0.00 | 89 | 1014.4 |
| 20260509030034 | 35 | 0 | 0.0 | 0.0 | 0.00 | 0.00 | 0.00 | 88 | 1014.3 |
| 20260509025516 | 35 | 0 | 0.0 | 0.0 | 0.00 | 0.00 | 0.00 | 88 | 1014.2 |
| 20260509025017 | 35 | 0 | 0.0 | 0.0 | 0.00 | 0.00 | 0.00 | 88 | 1014.2 |
| 20260509024537 | 36 | 0 | 0.0 | 0.0 | 0.00 | 0.00 | 0.00 | 88 | 1014.2 |
| 20260509024022 | 36 | 0 | 0.0 | 0.0 | 0.00 | 0.00 | 0.00 | 88 | 1014.1 |
| 20260509023521 | 36 | 0 | 0.0 | 0.0 | 0.00 | 0.00 | 0.00 | 88 | 1014.1 |
| 20260509023048 | 36 | 0 | 0.0 | 0.0 | 0.00 | 0.00 | 0.00 | 87 | 1014.2 |
| 20260509022518 | 36 | 0 | 0.0 | 0.0 | 0.00 | 0.00 | 0.00 | 87 | 1014.1 |
| 20260509022018 | 36 | 0 | 0.0 | 0.0 | 0.00 | 0.00 | 0.00 | 87 | 1014.1 |
| 20260509021537 | 36 | 0 | 0.0 | 0.0 | 0.00 | 0.00 | 0.00 | 87 | 1014.1 |
| 20260509021021 | 37 | 0 | 0.0 | 0.0 | 0.00 | 0.00 | 0.00 | 87 | 1014.0 |
| 20260509020520 | 37 | 0 | 0.0 | 0.0 | 0.00 | 0.00 | 0.00 | 86 | 1013.9 |
| 20260509020036 | 37 | 0 | 0.0 | 0.0 | 0.00 | 0.00 | 0.00 | 86 | 1013.9 |
| 20260509015520 | 37 | 0 | 0.0 | 0.0 | 0.00 | 0.00 | 0.00 | 86 | 1013.8 |
| 20260509015021 | 37 | 0 | 0.0 | 0.0 | 0.00 | 0.00 | 0.00 | 86 | 1013.8 |
| 20260509014535 | 37 | 0 | 0.0 | 0.0 | 0.00 | 0.00 | 0.00 | 86 | 1013.8 |
| 20260509014020 | 38 | 0 | 0.0 | 0.0 | 0.00 | 0.00 | 0.00 | 86 | 1013.7 |
| 20260509013520 | 38 | 0 | 0.0 | 0.0 | 0.00 | 0.00 | 0.00 | 87 | 1013.6 |
| 20260509013055 | 38 | 0 | 0.0 | 0.0 | 0.00 | 0.00 | 0.00 | 86 | 1013.6 |
| 20260509012519 | 38 | 0 | 0.0 | 0.0 | 0.00 | 0.00 | 0.00 | 86 | 1013.5 |
| 20260509012017 | 38 | 0 | 0.0 | 0.0 | 0.00 | 0.00 | 0.00 | 86 | 1013.4 |
| 20260509011538 | 39 | 0 | 0.0 | 0.0 | 0.00 | 0.00 | 0.00 | 85 | 1013.4 |
| 20260509011019 | 39 | 0 | 0.0 | 0.0 | 0.00 | 0.00 | 0.00 | 84 | 1013.4 |
| 20260509010518 | 39 | 0 | 0.0 | 0.0 | 0.00 | 0.00 | 0.00 | 85 | 1013.2 |
| 20260509010035 | 39 | 0 | 0.0 | 0.0 | 0.00 | 0.00 | 0.00 | 85 | 1013.2 |
| 20260509005520 | 40 | 0 | 0.0 | 0.0 | 0.00 | 0.00 | 0.00 | 85 | 1013.1 |
| 20260509005018 | 40 | 0 | 0.0 | 0.0 | 0.00 | 0.00 | 0.00 | 85 | 1012.9 |
| 20260509004536 | 40 | 0 | 0.0 | 0.0 | 0.00 | 0.00 | 0.00 | 84 | 1013.0 |
| 20260509004020 | 40 | 0 | 0.0 | 0.0 | 0.00 | 0.00 | 0.00 | 84 | 1012.7 |
| 20260509003520 | 41 | 0 | 0.0 | 0.0 | 0.00 | 0.00 | 0.00 | 84 | 1012.6 |
| 20260509003035 | 41 | 0 | 0.0 | 0.0 | 0.00 | 0.00 | 0.00 | 83 | 1012.6 |
| 20260509002521 | 42 | 0 | 0.0 | 0.0 | 0.00 | 0.00 | 0.00 | 83 | 1012.7 |
| 20260509002017 | 42 | 0 | 0.0 | 0.0 | 0.00 | 0.00 | 0.00 | 82 | 1012.5 |
| 20260509001537 | 42 | 0 | 0.0 | 0.0 | 0.00 | 0.00 | 0.00 | 82 | 1012.7 |
| 20260509001020 | 43 | 0 | 0.0 | 0.0 | 0.00 | 0.00 | 0.00 | 82 | 1012.5 |
| 20260509000519 | 43 | 0 | 0.0 | 0.0 | 0.00 | 0.00 | 0.00 | 81 | 1012.5 |
| 20260509000037 | 44 | 0 | 0.0 | 1.0 | 0.00 | 0.00 | 0.00 | 80 | 1012.5 |
| 20260508235517 | 44 | 0 | 0.0 | 1.0 | 0.00 | 0.00 | 0.00 | 79 | 1012.5 |
| 20260508235017 | 45 | 54 | 0.0 | 1.0 | 0.00 | 0.00 | 0.00 | 78 | 1012.4 |
| 20260508234537 | 45 | 54 | 0.0 | 1.0 | 0.00 | 0.00 | 0.00 | 77 | 1012.2 |
| 20260508234020 | 46 | 0 | 0.0 | 1.0 | 0.00 | 0.00 | 0.00 | 75 | 1012.3 |
| 20260508233520 | 46 | 54 | 0.0 | 2.0 | 0.00 | 0.00 | 0.00 | 74 | 1012.1 |
| 20260508233037 | 47 | 54 | 0.0 | 2.0 | 0.00 | 0.00 | 0.00 | 73 | 1012.1 |
| 20260508232520 | 47 | 29 | 1.0 | 2.0 | 0.00 | 0.00 | 0.00 | 73 | 1012.1 |
| 20260508232019 | 47 | 0 | 0.0 | 1.0 | 0.00 | 0.00 | 0.00 | 71 | 1012.2 |
| 20260508231532 | 48 | 0 | 0.0 | 1.0 | 0.00 | 0.00 | 0.00 | 71 | 1012.1 |
| 20260508231021 | 48 | 0 | 0.0 | 2.0 | 0.00 | 0.00 | 0.00 | 69 | 1012.2 |
| 20260508230521 | 48 | 110 | 1.0 | 2.0 | 0.00 | 0.00 | 0.00 | 70 | 1012.0 |
| 20260508230051 | 48 | 0 | 0.0 | 4.0 | 0.00 | 0.00 | 0.00 | 68 | 1012.0 |
| 20260508225519 | 48 | 171 | 0.0 | 5.0 | 0.00 | 0.00 | 0.00 | 68 | 1012.0 |
| 20260508225018 | 48 | 173 | 1.0 | 5.0 | 0.00 | 0.00 | 0.00 | 67 | 1011.9 |
| 20260508224555 | 48 | 196 | 1.0 | 4.0 | 0.00 | 0.00 | 0.00 | 68 | 1012.0 |
| 20260508224020 | 48 | 244 | 1.0 | 3.0 | 0.00 | 0.00 | 0.00 | 67 | 1012.0 |
| 20260508223523 | 48 | 134 | 1.0 | 4.0 | 0.00 | 0.00 | 0.00 | 69 | 1012.0 |
| 20260508223037 | 48 | 164 | 0.0 | 4.0 | 0.00 | 0.00 | 0.00 | 69 | 1011.9 |
| 20260508222520 | 47 | 134 | 0.0 | 2.0 | 0.00 | 0.00 | 0.00 | 69 | 1012.0 |
| 20260508222022 | 47 | 209 | 0.0 | 1.0 | 0.00 | 0.00 | 0.00 | 73 | 1012.1 |
| 20260508221537 | 47 | 236 | 0.0 | 2.0 | 0.00 | 0.00 | 0.00 | 73 | 1012.1 |
| 20260508221022 | 47 | 346 | 0.0 | 2.0 | 0.00 | 0.00 | 0.00 | 75 | 1012.1 |
| 20260508220517 | 46 | 302 | 1.0 | 2.0 | 0.00 | 0.00 | 0.00 | 76 | 1012.1 |
| 20260508220035 | 46 | 113 | 0.0 | 1.0 | 0.00 | 0.00 | 0.00 | 75 | 1012.1 |
| 20260508215520 | 46 | 127 | 0.0 | 1.0 | 0.00 | 0.00 | 0.00 | 74 | 1012.2 |
| 20260508215020 | 46 | 0 | 0.0 | 1.0 | 0.00 | 0.00 | 0.00 | 73 | 1012.1 |
| 20260508214537 | 46 | 0 | 0.0 | 1.0 | 0.00 | 0.00 | 0.00 | 74 | 1012.1 |
| 20260508214021 | 45 | 77 | 0.0 | 2.0 | 0.00 | 0.00 | 0.00 | 74 | 1012.3 |
| 20260508213519 | 45 | 0 | 0.0 | 2.0 | 0.00 | 0.00 | 0.00 | 75 | 1012.3 |
| 20260508213042 | 45 | 77 | 0.0 | 2.0 | 0.00 | 0.00 | 0.00 | 76 | 1012.1 |
| 20260508212522 | 45 | 66 | 1.0 | 5.0 | 0.00 | 0.00 | 0.00 | 74 | 1012.1 |
| 20260508212019 | 45 | 280 | 0.0 | 5.0 | 0.00 | 0.00 | 0.00 | 72 | 1012.1 |
| 20260508211535 | 45 | 274 | 2.0 | 5.0 | 0.00 | 0.00 | 0.00 | 73 | 1012.3 |
| 20260508211022 | 46 | 284 | 2.0 | 10.0 | 0.00 | 0.00 | 0.00 | 71 | 1012.3 |
| 20260508210518 | 46 | 23 | 3.0 | 10.0 | 0.00 | 0.00 | 0.00 | 70 | 1012.4 |
| 20260508210035 | 47 | 244 | 3.0 | 7.0 | 0.00 | 0.00 | 0.00 | 67 | 1012.3 |
| 20260508205519 | 48 | 262 | 3.0 | 7.0 | 0.00 | 0.00 | 0.00 | 63 | 1012.3 |
| 20260508205020 | 48 | 235 | 1.0 | 9.0 | 0.00 | 0.00 | 0.00 | 62 | 1012.1 |
| 20260508204539 | 49 | 285 | 2.0 | 9.0 | 0.00 | 0.00 | 0.00 | 61 | 1011.8 |
| 20260508204023 | 49 | 325 | 3.0 | 9.0 | 0.00 | 0.00 | 0.00 | 58 | 1011.6 |
| 20260508203520 | 50 | 14 | 2.0 | 9.0 | 0.00 | 0.00 | 0.00 | 57 | 1011.4 |
| 20260508203037 | 51 | 342 | 3.0 | 9.0 | 0.00 | 0.00 | 0.00 | 55 | 1011.3 |
| 20260508202519 | 51 | 290 | 3.0 | 6.0 | 0.00 | 0.00 | 0.00 | 53 | 1011.3 |
| 20260508202020 | 51 | 194 | 2.0 | 6.0 | 0.00 | 0.00 | 0.00 | 55 | 1011.3 |
| 20260508201535 | 51 | 241 | 3.0 | 6.0 | 0.00 | 0.00 | 0.00 | 53 | 1011.1 |
| 20260508201018 | 51 | 112 | 3.0 | 11.0 | 0.00 | 0.00 | 0.00 | 53 | 1011.0 |
| 20260508200521 | 52 | 347 | 4.0 | 11.0 | 0.00 | 0.00 | 0.00 | 53 | 1011.0 |
| 20260508200043 | 52 | 174 | 5.0 | 11.0 | 0.00 | 0.00 | 0.00 | 50 | 1010.7 |
| 20260508195523 | 52 | 30 | 2.0 | 13.0 | 0.00 | 0.00 | 0.00 | 50 | 1010.5 |
| 20260508195017 | 53 | 153 | 4.0 | 13.0 | 0.00 | 0.00 | 0.00 | 50 | 1010.4 |
| 20260508194537 | 53 | 179 | 4.0 | 10.0 | 0.00 | 0.00 | 0.00 | 49 | 1010.6 |
| 20260508194017 | 53 | 68 | 2.0 | 7.0 | 0.00 | 0.00 | 0.00 | 51 | 1010.5 |
| 20260508193519 | 53 | 187 | 2.0 | 7.0 | 0.00 | 0.00 | 0.00 | 51 | 1010.4 |
| 20260508193111 | 53 | 122 | 3.0 | 12.0 | 0.00 | 0.00 | 0.00 | 50 | 1010.6 |
| 20260508192522 | 53 | 184 | 2.0 | 12.0 | 0.00 | 0.00 | 0.00 | 49 | 1010.4 |
| 20260508192023 | 54 | 180 | 4.0 | 8.0 | 0.00 | 0.00 | 0.00 | 48 | 1010.6 |
| 20260508191537 | 53 | 181 | 4.0 | 7.0 | 0.00 | 0.00 | 0.00 | 51 | 1010.7 |
| 20260508191022 | 52 | 227 | 1.0 | 7.0 | 0.00 | 0.00 | 0.00 | 54 | 1010.6 |
| 20260508190523 | 52 | 121 | 3.0 | 10.0 | 0.00 | 0.00 | 0.00 | 52 | 1010.9 |
| 20260508190038 | 52 | 170 | 2.0 | 10.0 | 0.00 | 0.00 | 0.00 | 54 | 1010.8 |
| 20260508185518 | 52 | 210 | 4.0 | 10.0 | 0.00 | 0.00 | 0.00 | 51 | 1010.9 |
| 20260508185017 | 52 | 168 | 4.0 | 10.0 | 0.00 | 0.00 | 0.00 | 50 | 1010.8 |
| 20260508184544 | 52 | 248 | 3.0 | 9.0 | 0.00 | 0.00 | 0.00 | 50 | 1010.9 |
| 20260508184019 | 53 | 230 | 3.0 | 8.0 | 0.00 | 0.00 | 0.00 | 48 | 1011.0 |
| 20260508183519 | 53 | 165 | 4.0 | 8.0 | 0.00 | 0.00 | 0.00 | 51 | 1011.1 |
| 20260508183040 | 52 | 193 | 4.0 | 7.0 | 0.00 | 0.00 | 0.00 | 55 | 1011.2 |
| 20260508182520 | 51 | 184 | 3.0 | 7.0 | 0.00 | 0.00 | 0.00 | 51 | 1011.2 |
| 20260508182019 | 51 | 154 | 3.0 | 9.0 | 0.00 | 0.00 | 0.00 | 53 | 1011.3 |
| 20260508181536 | 51 | 103 | 3.0 | 11.0 | 0.00 | 0.00 | 0.00 | 54 | 1011.5 |
| 20260508181019 | 51 | 177 | 4.0 | 11.0 | 0.00 | 0.00 | 0.00 | 51 | 1011.7 |
| 20260508180519 | 51 | 214 | 4.0 | 10.0 | 0.00 | 0.00 | 0.00 | 51 | 1011.6 |
| 20260508180037 | 51 | 162 | 3.0 | 10.0 | 0.00 | 0.00 | 0.00 | 53 | 1011.3 |
| 20260508175519 | 51 | 183 | 3.0 | 8.0 | 0.00 | 0.00 | 0.00 | 50 | 1011.5 |
| 20260508175020 | 51 | 147 | 2.0 | 9.0 | 0.00 | 0.00 | 0.00 | 51 | 1011.7 |
| 20260508174552 | 52 | 255 | 3.0 | 10.0 | 0.00 | 0.00 | 0.00 | 50 | 1011.6 |
| 20260508174023 | 52 | 161 | 3.0 | 10.0 | 0.00 | 0.00 | 0.00 | 49 | 1011.3 |
| 20260508173517 | 52 | 195 | 3.0 | 10.0 | 0.00 | 0.00 | 0.00 | 52 | 1011.3 |
| 20260508173037 | 52 | 171 | 1.0 | 7.0 | 0.00 | 0.00 | 0.00 | 52 | 1011.3 |
| 20260508172520 | 51 | 130 | 3.0 | 7.0 | 0.00 | 0.00 | 0.00 | 48 | 1011.2 |
| 20260508172018 | 51 | 157 | 2.0 | 10.0 | 0.00 | 0.00 | 0.00 | 51 | 1011.4 |
| 20260508171546 | 51 | 210 | 2.0 | 10.0 | 0.00 | 0.00 | 0.00 | 50 | 1011.3 |
| 20260508171020 | 51 | 217 | 4.0 | 10.0 | 0.00 | 0.00 | 0.00 | 50 | 1011.3 |
| 20260508170517 | 51 | 204 | 4.0 | 9.0 | 0.00 | 0.00 | 0.00 | 50 | 1011.4 |
| 20260508170040 | 52 | 155 | 4.0 | 9.0 | 0.00 | 0.00 | 0.00 | 49 | 1011.4 |
| 20260508165519 | 51 | 198 | 4.0 | 9.0 | 0.00 | 0.00 | 0.00 | 49 | 1011.5 |
| 20260508165019 | 51 | 304 | 2.0 | 7.0 | 0.00 | 0.00 | 0.00 | 51 | 1011.5 |
| 20260508164539 | 50 | 147 | 2.0 | 7.0 | 0.00 | 0.00 | 0.00 | 49 | 1011.6 |
| 20260508164018 | 50 | 162 | 2.0 | 7.0 | 0.00 | 0.00 | 0.00 | 49 | 1011.5 |
| 20260508163517 | 50 | 173 | 1.0 | 7.0 | 0.00 | 0.00 | 0.00 | 48 | 1011.6 |
| 20260508163037 | 50 | 93 | 2.0 | 7.0 | 0.00 | 0.00 | 0.00 | 50 | 1011.6 |
| 20260508162519 | 49 | 276 | 2.0 | 5.0 | 0.00 | 0.00 | 0.00 | 47 | 1011.6 |
| 20260508162017 | 49 | 195 | 2.0 | 5.0 | 0.00 | 0.00 | 0.00 | 48 | 1011.8 |
| 20260508161541 | 49 | 103 | 1.0 | 3.0 | 0.00 | 0.00 | 0.00 | 48 | 1011.6 |
| 20260508161021 | 49 | 161 | 1.0 | 7.0 | 0.00 | 0.00 | 0.00 | 49 | 1011.6 |
| 20260508160518 | 49 | 318 | 1.0 | 8.0 | 0.00 | 0.00 | 0.00 | 50 | 1011.6 |
| 20260508160037 | 49 | 75 | 3.0 | 8.0 | 0.00 | 0.00 | 0.00 | 46 | 1011.7 |
| 20260508155518 | 49 | 89 | 3.0 | 8.0 | 0.00 | 0.00 | 0.00 | 45 | 1011.7 |
| 20260508155018 | 50 | 268 | 2.0 | 6.0 | 0.00 | 0.00 | 0.00 | 47 | 1011.7 |
| 20260508154532 | 50 | 246 | 2.0 | 6.0 | 0.00 | 0.00 | 0.00 | 47 | 1011.6 |
| 20260508154018 | 51 | 3 | 2.0 | 7.0 | 0.00 | 0.00 | 0.00 | 53 | 1011.6 |